Flag for Canada Weather past 2 weeks in Summerside, Prince Edward Island, Canada

Now
70 °F

Mild.


Feels Like: 72 °F
Forecast: 62 / 78 °F
Wind: 8 mph from West

Location: Summerside Airport

Current Time: Aug 29, 2015 at 12:16:39 PM

Latest Report: Aug 29, 2015 at 11:00 AM


Visibility: N/A

Pressure: 30.06 "Hg

Humidity: 78%

Dew point: 63 °F

Location of SummersideLocation

Historic Weather in Summerside — Graph

°F

Summerside temperature yesterday

Maximum temperature yesterday: 75 °F (at 5:00 PM)
Minimum temperature yesterday: 60 °F (at 6:00 AM)
Average temperature yesterday: 66 °F

Past Weeks' High & Low Weather Summary

 TemperatureHumidityPressure
High87 °F (Aug 18, 4:00 PM)100% (Aug 16, 5:00 AM)30.21 "Hg (Aug 16, 5:00 AM)
Low60 °F (Aug 28, 6:00 AM)63% (Aug 19, 4:00 PM)29.78 "Hg (Aug 27, 6:00 PM)
Average72 °F85%30.02 "Hg
* Reported Aug 14 11:00 AM — Aug 29 11:00 AM, Summerside, Weather by CustomWeather, © 2015

Note: Actual official high and low records may vary slightly from our data, if they occured in-between our weather recording intervals... More about our weather records

Advertising

Summerside weather history for previous 24 hours

 ConditionsComfort  
Time TempWeatherWind HumidityBarometerVisibility
11:00 AM
Sat, Aug 29
70 °FMild.8 mph78%30.06 "HgN/A
10:00 AM68 °FMild.8 mph82%30.06 "HgN/A
9:00 AM66 °FMild.6 mph87%30.06 "HgN/A
8:00 AM63 °FMild.5 mph87%30.06 "HgN/A
7:00 AM61 °FCool.6 mph90%30.04 "HgN/A
6:00 AM60 °FCool.5 mph89%30.03 "HgN/A
5:00 AM60 °FCool.7 mph89%30.03 "HgN/A
4:00 AM61 °FCool.6 mph87%30.03 "HgN/A
3:00 AM61 °FCool.6 mph88%30.03 "HgN/A
2:00 AM62 °FCool.6 mph88%30.03 "HgN/A
1:00 AM62 °FCool.5 mph85%30.03 "HgN/A
12:00 AM64 °FMild.8 mph86%30.01 "HgN/A
11:00 PM
Fri, Aug 28
65 °FMild.8 mph91%30.01 "HgN/A
10:00 PM65 °FMild.8 mph85%30.00 "HgN/A
9:00 PM63 °FMild.5 mph90%30.00 "HgN/A
8:00 PM66 °FMild.5 mph87%29.98 "HgN/A
7:00 PM72 °FMild.5 mph73%29.97 "HgN/A
6:00 PM74 °FMild.8 mph70%29.97 "HgN/A
5:00 PM75 °FMild.12 mph69%29.97 "HgN/A
4:00 PM74 °FMild.10 mph69%29.97 "HgN/A
3:00 PM74 °FMild.10 mph71%29.97 "HgN/A
2:00 PM73 °FMild.12 mph75%29.98 "HgN/A
1:00 PM71 °FMild.13 mph76%29.98 "HgN/A
12:00 PM70 °FMild.10 mph80%29.98 "HgN/A
Weather by CustomWeather, © 2015

See weather overviewHow to use our weather pages